EW5447 Weather Reports


Display with metric or nautical units.
time (UTC)temp
F
wind
direction
speed
MPH
gust
MPH
rain 1hr
in
rain 24hr
in
rain mn
in
humidity
%
barometer
mb
20260901074531 63 290 0.0 0.0 0.00 0.00 0.00 45 1010.2
20260901073027 64 265 0.0 2.0 0.00 0.00 0.00 44 1010.1
20260901071525 65 273 1.0 3.0 0.00 0.00 0.00 43 1010.0
20260901070023 65 243 2.0 5.0 0.00 0.00 0.00 44 1010.0
20260901064526 64 254 2.0 5.0 0.00 0.00 0.00 44 1010.0
20260901063019 65 204 2.0 4.0 0.00 0.00 0.00 41 1009.9
20260901061519 66 252 0.0 0.0 0.00 0.00 0.00 37 1009.8
20260901060018 67 252 0.0 3.0 0.00 0.00 0.00 36 1009.7
20260901054518 68 224 3.0 3.0 0.00 0.00 0.00 33 1009.7
20260901053018 70 279 0.0 3.0 0.00 0.00 0.00 32 1009.8
20260901051517 71 281 1.0 4.0 0.00 0.00 0.00 29 1009.7
20260901050017 71 271 1.0 4.0 0.00 0.00 0.00 29 1009.6
20260901044516 72 283 1.0 4.0 0.00 0.00 0.00 26 1009.3
20260901043016 73 301 1.0 3.0 0.00 0.00 0.00 26 1009.1
20260901041515 74 259 4.0 11.0 0.00 0.00 0.00 25 1008.7
20260901040015 75 262 6.0 10.0 0.00 0.00 0.00 24 1008.4
20260901034522 76 270 8.0 14.0 0.00 0.00 0.00 24 1008.1
20260901033013 76 257 6.0 10.0 0.00 0.00 0.00 23 1007.7
20260901031521 78 255 4.0 10.0 0.00 0.00 0.00 22 1007.3
20260901030011 79 261 5.0 13.0 0.00 0.00 0.00 22 1007.0
20260901024510 81 244 4.0 16.0 0.00 0.00 0.00 23 1006.8
20260901023011 82 242 9.0 14.0 0.00 0.00 0.00 23 1006.4
20260901021511 84 254 5.0 14.0 0.00 0.00 0.00 26 1006.1
20260901020008 85 263 7.0 15.0 0.00 0.00 0.00 23 1005.9
20260901014507 86 238 11.0 16.0 0.00 0.00 0.00 23 1005.7
20260901013007 87 283 10.0 18.0 0.00 0.00 0.00 23 1005.5
20260901011515 88 268 12.0 19.0 0.00 0.00 0.00 24 1005.1
20260901010005 89 259 11.0 17.0 0.00 0.00 0.00 24 1005.0
20260901004506 88 273 9.0 16.0 0.00 0.00 0.00 25 1005.0
20260901003002 90 302 11.0 17.0 0.00 0.00 0.00 24 1004.8
20260901001501 92 284 9.0 16.0 0.00 0.00 0.00 22 1004.8
20260901000059 93 247 10.0 14.0 0.00 0.00 0.00 21 1004.8
20260831234559 93 251 8.0 13.0 0.00 0.00 0.00 21 1005.0
20260831233057 94 254 7.0 16.0 0.00 0.00 0.00 21 1005.0
20260831231556 94 227 7.0 16.0 0.00 0.00 0.00 20 1005.2
20260831230101 94 181 5.0 15.0 0.00 0.00 0.00 20 1005.4
20260831224551 95 235 3.0 13.0 0.00 0.00 0.00 18 1005.6
20260831223051 94 146 2.0 11.0 0.00 0.00 0.00 18 1005.7
20260831221556 94 219 4.0 10.0 0.00 0.00 0.00 18 1005.9
20260831220055 94 347 3.0 9.0 0.00 0.00 0.00 19 1006.1
20260831214542 93 260 4.0 9.0 0.00 0.00 0.00 19 1006.3
20260831213040 93 229 3.0 12.0 0.00 0.00 0.00 19 1006.6
20260831211540 92 244 6.0 14.0 0.00 0.00 0.00 19 1006.7
20260831210036 92 252 5.0 12.0 0.00 0.00 0.00 18 1007.0
20260831204532 91 270 4.0 10.0 0.00 0.00 0.00 19 1007.1
20260831203028 91 213 6.0 8.0 0.00 0.00 0.00 20 1007.4
20260831201525 90 267 5.0 8.0 0.00 0.00 0.00 21 1007.7
20260831200036 88 252 3.0 7.0 0.00 0.00 0.00 22 1008.0
20260831194516 87 348 1.0 4.0 0.00 0.00 0.00 23 1008.2
20260831193021 85 274 0.0 7.0 0.00 0.00 0.00 24 1008.5
20260831191510 84 251 1.0 7.0 0.00 0.00 0.00 26 1008.8
20260831190005 83 171 3.0 7.0 0.00 0.00 0.00 28 1009.1
20260831184606 81 293 2.0 5.0 0.00 0.00 0.00 29 1009.3
20260831183056 79 138 2.0 6.0 0.00 0.00 0.00 30 1009.6
20260831181557 78 214 0.0 4.0 0.00 0.00 0.00 32 1009.7
20260831180049 76 124 2.0 5.0 0.00 0.00 0.00 35 1009.9
20260831174546 74 227 2.0 5.0 0.00 0.00 0.00 35 1010.1
20260831173039 73 309 1.0 3.0 0.00 0.00 0.00 37 1010.3
20260831171534 71 300 1.0 5.0 0.00 0.00 0.00 39 1010.4
20260831170031 70 314 0.0 3.0 0.00 0.00 0.00 41 1010.6
20260831164539 68 232 1.0 4.0 0.00 0.00 0.00 42 1010.7
20260831163024 67 272 0.0 2.0 0.00 0.00 0.00 44 1010.9
20260831161516 65 119 0.0 2.0 0.00 0.00 0.00 46 1011.2
20260831160012 64 161 0.0 2.0 0.00 0.00 0.00 50 1011.3
20260831154507 61 147 0.0 2.0 0.00 0.00 0.00 54 1011.4
20260831153002 59 56 0.0 0.0 0.00 0.00 0.00 57 1011.5
20260831151602 56 150 0.0 0.0 0.00 0.00 0.00 61 1011.6
20260831150055 54 213 0.0 2.0 0.00 0.00 0.00 65 1011.5
20260831144606 51 235 0.0 0.0 0.00 0.00 0.00 74 1011.5
20260831143057 49 300 0.0 0.0 0.00 0.00 0.00 77 1011.4
20260831141546 48 310 0.0 0.0 0.00 0.00 0.00 77 1011.3
20260831140044 47 310 0.0 1.0 0.00 0.00 0.00 77 1011.2
20260831134542 48 315 0.0 2.0 0.00 0.00 0.00 75 1011.2
20260831133040 48 21 0.0 0.0 0.00 0.00 0.00 75 1011.2
20260831131540 48 21 0.0 0.0 0.00 0.00 0.00 74 1011.3
20260831130038 48 296 0.0 0.0 0.00 0.00 0.00 74 1011.2
20260831124536 49 296 0.0 0.0 0.00 0.00 0.00 72 1011.2
20260831123037 49 296 0.0 0.0 0.00 0.00 0.00 74 1011.2
20260831121534 49 323 0.0 0.0 0.00 0.00 0.00 75 1011.2
20260831120039 49 21 0.0 1.0 0.00 0.00 0.00 71 1011.2
20260831114534 50 232 0.0 0.0 0.00 0.00 0.00 73 1011.4
20260831113028 50 195 0.0 0.0 0.00 0.00 0.00 70 1011.4
20260831111527 50 195 0.0 0.0 0.00 0.00 0.00 69 1011.5
20260831110026 50 195 0.0 1.0 0.00 0.00 0.00 69 1011.5
20260831104523 51 285 1.0 2.0 0.00 0.00 0.00 68 1011.4
20260831103021 52 313 0.0 0.0 0.00 0.00 0.00 67 1011.4
20260831101519 52 302 0.0 0.0 0.00 0.00 0.00 66 1011.5
20260831100016 53 9 0.0 0.0 0.00 0.00 0.00 65 1011.6
20260831094515 53 53 0.0 0.0 0.00 0.00 0.00 66 1011.7
20260831093029 54 310 0.0 0.0 0.00 0.00 0.00 66 1011.8
20260831091512 54 159 0.0 2.0 0.00 0.00 0.00 64 1011.8
20260831090009 54 332 0.0 0.0 0.00 0.00 0.00 64 1011.8
20260831084506 55 296 0.0 0.0 0.00 0.00 0.00 61 1011.8
20260831083004 56 284 0.0 0.0 0.00 0.00 0.00 60 1011.9
20260831081502 56 79 0.0 0.0 0.00 0.00 0.00 59 1012.0
20260831080100 57 79 0.0 0.0 0.00 0.00 0.00 58 1012.1